Flag for Saudi Arabia Weather past 2 weeks in Qatif, Saudi Arabia

Now
95 °F

Clear.


Feels Like: 93 °F
Forecast: 88 / 108 °F
Wind: No wind

Location: King Fahd International Airport

Current Time: Jul 26, 2014 at 10:34:02 PM

Latest Report: Jul 26, 2014 at 10:00 PM


Visibility: 10 mi

Pressure: 29.56 "Hg

Humidity: 25%

Dew point: 54 °F

Location of QatifLocation

Historic Weather in Qatif — Graph

°F

Qatif temperature yesterday

Maximum temperature yesterday: 113 °F (at 1:00 PM)
Minimum temperature yesterday: 90 °F (at 3:00 AM)
Average temperature yesterday: 100 °F

Past Weeks' High & Low Weather Summary

 TemperatureHumidityPressure
High117 °F (Jul 13, 2:00 PM)55% (Jul 17, 11:00 PM)29.56 "Hg (Jul 17, 11:00 PM)
Low82 °F (Jul 16, 5:00 AM)5% (Jul 13, 12:00 PM)29.33 "Hg (Jul 17, 4:00 PM)
Average99 °F18%29.45 "Hg
* Reported Jul 11 9:00 PM — Jul 26 9:00 PM, Qatif, Weather by CustomWeather, © 2014

Note: Actual official high and low records may vary slightly from our data, if they occured in-between our weather recording intervals... More about our weather records

Advertising

Qatif weather history for previous 24 hours

 ConditionsComfort  
Time TempWeatherWind HumidityBarometerVisibility
9:00 PM
Jul 26
97 °FClear.3 mph25%29.53 "Hg10 mi
8:00 PM99 °FClear.3 mph22%29.53 "Hg10 mi
7:00 PM102 °FClear.8 mph18%29.50 "Hg10 mi
6:00 PM106 °FSunny.13 mph13%29.50 "Hg10 mi
5:00 PM108 °FSunny.20 mph13%29.47 "Hg10 mi
4:00 PM109 °FSunny.22 mph11%29.47 "Hg10 mi
3:00 PM109 °FSunny.23 mph11%29.50 "Hg10 mi
2:00 PM109 °FSunny.21 mph12%29.50 "Hg10 mi
1:00 PM109 °FSunny.21 mph14%29.50 "Hg10 mi
12:00 PM109 °FSunny.21 mph15%29.53 "Hg10 mi
11:00 AM108 °FSunny.20 mph18%29.53 "Hg10 mi
10:00 AM106 °FSunny.18 mph19%29.53 "Hg10 mi
9:00 AM102 °FSunny.13 mph21%29.53 "Hg10 mi
8:00 AM99 °FSunny.13 mph21%29.53 "Hg10 mi
7:00 AM93 °FSunny.7 mph17%29.50 "Hg10 mi
6:00 AM90 °FSunny.9 mph20%29.47 "Hg10 mi
5:00 AM90 °FClear.10 mph22%29.47 "Hg10 mi
4:00 AM90 °FClear.6 mph24%29.45 "Hg10 mi
3:00 AM90 °FClear.7 mph27%29.45 "Hg10 mi
2:00 AM88 °FClear.No wind33%29.45 "Hg10 mi
1:00 AM90 °FClear.5 mph29%29.45 "Hg10 mi
12:00 AM90 °FClear.7 mph31%29.45 "Hg10 mi
11:00 PM
Jul 25
93 °FClear.5 mph28%29.47 "Hg10 mi
10:00 PM93 °FClear.No wind32%29.47 "Hg10 mi
Weather by CustomWeather, © 2014

See weather overviewHow to use our weather pages